TURKSAT 4B (40984 NORAD) Tracking and Keplerian Element Data

This shows tracking and keplerian element data for the satellite.

Feedback or suggestion? Click here.




ElementValue
Catalog40984
NameTURKSAT 4B
Epoch Orbit3409
Epoch Day34.71919573
Epoch Year2025
RAAN284.1522
Inclination0.0038
Eccentricity0.0001582
Argument of Perigee33.9552
Mean Anonmoly124.8728
Mean Motion1.00269752
Decay Rate1.2E-06
L11 40984U 15060A 25034.71919573 .00000120 00000+0 00000+0 0 9994
L22 40984 0.0038 284.1522 0001582 33.9552 124.8728 1.00269752 34095



Live tracking and technical data element details for TURKSAT 4B (NORAD 40984). TURKSAT 4B can be tracked NOW for your location showing map with azimuth and elevation plus other details from your city location.







IsCatalogInMostPopularTable: catalog: 40984, numindb: 683
Update: records affected: 1



GetName: 40984 TURKSAT 4B

Hit Count: updated at: Fri, 18 Jul 2025 17:03:58 GMT